DB0BQ-11 Weather Reports


time (UTC)temp
C
wind
direction
speed
KPH
gust
KPH
rain 1hr
cm
rain 24hr
cm
rain mn
cm
humidity
%
barometer
mb
20260502163113 23 228 6.4 8.0 0.00 0.00 0.00 62 1014.7
20260502162031 22 230 6.4 8.0 0.00 0.00 0.00 65 1014.9
20260502161029 22 220 4.8 6.4 0.00 0.00 0.00 65 1015.3
20260502152019 22 219 3.2 6.4 0.00 0.00 0.00 56 1015.7
20260502151036 22 197 3.2 6.4 0.00 0.00 0.00 52 1015.9
20260502123022 25 145 4.8 11.3 0.00 0.00 0.00 41 1017.2
20260502122020 25 114 6.4 12.9 0.00 0.00 0.00 41 1017.4
20260502121018 25 82 6.4 11.3 0.00 0.00 0.00 41 1017.5
20260502115054 25 343 4.8 14.5 0.00 0.00 0.00 41 1017.6
20260502114031 24 127 4.8 8.0 0.00 0.00 0.00 40 1017.8
20260502113109 25 200 4.8 11.3 0.00 0.00 0.00 40 1017.8
20260502112027 24 311 4.8 9.7 0.00 0.00 0.00 40 1018.0
20260502111025 23 270 4.8 9.7 0.00 0.00 0.00 42 1018.1
20260502105040 23 140 4.8 16.1 0.00 0.00 0.00 41 1018.2
20260502104018 23 163 4.8 9.7 0.00 0.00 0.00 41 1018.3
20260502103016 23 33 6.4 14.5 0.00 0.00 0.00 41 1018.4
20260502102034 23 264 3.2 9.7 0.00 0.00 0.00 41 1018.5
20260502101032 23 122 4.8 9.7 0.00 0.00 0.00 40 1018.5
20260502091019 21 47 4.8 9.7 0.00 0.00 0.00 42 1019.0
20260502071033 18 235 3.2 6.4 0.00 0.00 0.00 43 1019.0
20260502070031 17 245 3.2 6.4 0.00 0.00 0.00 46 1019.1
20260502065029 17 267 3.2 6.4 0.00 0.00 0.00 47 1019.2
20260502064027 17 225 1.6 6.4 0.00 0.00 0.00 48 1019.2
20260502063024 16 329 1.6 8.0 0.00 0.00 0.00 50 1019.3
20260502062022 15 296 1.6 4.8 0.00 0.00 0.00 51 1019.2
20260502061020 15 230 3.2 4.8 0.00 0.00 0.00 53 1019.1
20260502060018 14 236 1.6 4.8 0.00 0.00 0.00 55 1019.1
20260502055016 12 229 1.6 4.8 0.00 0.00 0.00 63 1019.3
20260502054034 11 221 3.2 4.8 0.00 0.00 0.00 69 1019.3
20260502053031 10 224 3.2 4.8 0.00 0.00 0.00 71 1019.3
20260502052029 10 213 3.2 4.8 0.00 0.00 0.00 73 1019.2
20260502051027 9 220 3.2 6.4 0.00 0.00 0.00 78 1019.1
20260502050025 8 212 3.2 6.4 0.00 0.00 0.00 79 1019.2
20260502045023 8 206 3.2 4.8 0.00 0.00 0.00 79 1019.2
20260502044021 8 221 4.8 8.0 0.00 0.00 0.00 80 1019.3
20260502043019 8 212 3.2 6.4 0.00 0.00 0.00 79 1019.3
20260502042017 8 222 3.2 8.0 0.00 0.00 0.00 78 1019.4
20260502041055 8 205 3.2 4.8 0.00 0.00 0.00 77 1019.5
20260502040052 8 211 3.2 6.4 0.00 0.00 0.00 75 1019.5
20260502035030 9 206 3.2 6.4 0.00 0.00 0.00 75 1019.6
20260502034108 9 225 3.2 6.4 0.00 0.00 0.00 73 1019.7
20260502033026 10 210 3.2 6.4 0.00 0.00 0.00 72 1019.6
20260502032023 10 208 3.2 6.4 0.00 0.00 0.00 69 1019.6
20260502031022 11 207 4.8 8.0 0.00 0.00 0.00 67 1019.7
20260502030019 11 216 3.2 6.4 0.00 0.00 0.00 67 1019.9
20260502025017 11 218 4.8 8.0 0.00 0.00 0.00 66 1019.9
20260502024035 11 220 4.8 8.0 0.00 0.00 0.00 65 1020.0
20260502023053 10 210 4.8 8.0 0.00 0.00 0.00 67 1019.9
20260502022031 10 213 3.2 8.0 0.00 0.00 0.00 67 1020.0
20260502021048 10 219 3.2 8.0 0.00 0.00 0.00 70 1020.1
20260502020026 10 223 4.8 9.7 0.00 0.00 0.00 71 1020.2
20260502015024 9 207 4.8 6.4 0.00 0.00 0.00 74 1020.3
20260502014022 9 234 3.2 4.8 0.00 0.00 0.00 75 1020.3
20260502013020 9 215 3.2 9.7 0.00 0.00 0.00 74 1020.5
20260502012018 10 198 3.2 6.4 0.00 0.00 0.00 73 1020.6
20260502011015 10 277 3.2 6.4 0.00 0.00 0.00 71 1020.6
20260502010033 10 210 4.8 8.0 0.00 0.00 0.00 71 1020.7
20260502005112 10 245 1.6 6.4 0.00 0.00 0.00 71 1020.9
20260502004029 10 204 4.8 9.7 0.00 0.00 0.00 71 1020.9
20260502003027 10 198 4.8 8.0 0.00 0.00 0.00 71 1021.0
20260502002025 10 215 4.8 8.0 0.00 0.00 0.00 72 1021.0
20260502001023 10 233 3.2 6.4 0.00 0.00 0.00 71 1021.1
20260502000020 10 208 4.8 9.7 0.00 0.00 0.00 70 1021.3
20260501235018 10 204 4.8 9.7 0.00 0.00 0.00 70 1021.4
20260501234036 10 221 3.2 4.8 0.00 0.00 0.00 70 1021.4
20260501233034 11 221 3.2 6.4 0.00 0.00 0.00 69 1021.4
20260501232032 11 220 3.2 6.4 0.00 0.00 0.00 69 1021.4
20260501231030 11 218 3.2 4.8 0.00 0.00 0.00 68 1021.6
20260501230027 11 223 3.2 4.8 0.00 0.00 0.00 68 1021.4
20260501225026 11 216 3.2 4.8 0.00 0.00 0.00 68 1021.5
20260501224023 11 220 3.2 4.8 0.00 0.00 0.00 67 1021.5
20260501223021 11 215 3.2 4.8 0.00 0.00 0.00 65 1021.6
20260501222019 12 218 3.2 3.2 0.00 0.00 0.00 64 1021.7
20260501221017 12 222 4.8 4.8 0.00 0.00 0.00 63 1021.8
20260501220035 12 223 4.8 6.4 0.00 0.00 0.00 62 1021.8
20260501215032 12 217 3.2 4.8 0.00 0.00 0.00 62 1021.8
20260501214051 13 220 3.2 4.8 0.00 0.00 0.00 61 1021.8
20260501213028 13 224 3.2 6.4 0.00 0.00 0.00 59 1021.7
20260501212106 13 222 3.2 4.8 0.00 0.00 0.00 57 1021.7
20260501211024 13 219 3.2 4.8 0.00 0.00 0.00 56 1021.8
20260501210022 14 223 4.8 4.8 0.00 0.00 0.00 54 1021.9
20260501205020 15 222 3.2 4.8 0.00 0.00 0.00 52 1021.8
20260501204038 15 219 3.2 4.8 0.00 0.00 0.00 50 1021.9
20260501203015 16 225 3.2 6.4 0.00 0.00 0.00 47 1022.0
20260501202033 16 231 4.8 6.4 0.00 0.00 0.00 45 1021.9
20260501201031 17 225 4.8 6.4 0.00 0.00 0.00 42 1021.9
20260501200029 17 223 4.8 6.4 0.00 0.00 0.00 39 1021.9
20260501195027 18 227 4.8 6.4 0.00 0.00 0.00 37 1021.9
20260501194024 18 224 3.2 6.4 0.00 0.00 0.00 36 1021.8
20260501193022 19 222 4.8 6.4 0.00 0.00 0.00 35 1021.8
20260501192020 20 225 4.8 6.4 0.00 0.00 0.00 33 1021.9
20260501191018 20 224 4.8 6.4 0.00 0.00 0.00 32 1021.9
20260501190016 21 227 3.2 6.4 0.00 0.00 0.00 30 1021.8
20260501185034 21 223 4.8 6.4 0.00 0.00 0.00 29 1021.8
20260501184031 22 235 3.2 6.4 0.00 0.00 0.00 28 1021.8
20260501183029 22 244 3.2 8.0 0.00 0.00 0.00 27 1021.8
20260501182027 23 233 4.8 8.0 0.00 0.00 0.00 26 1021.8
20260501181025 23 264 3.2 9.7 0.00 0.00 0.00 25 1021.8
20260501180023 23 279 3.2 8.0 0.00 0.00 0.00 25 1021.7
20260501175021 23 316 3.2 9.7 0.00 0.00 0.00 24 1021.7
20260501174019 24 316 4.8 11.3 0.00 0.00 0.00 24 1021.7
20260501173017 25 235 3.2 8.0 0.00 0.00 0.00 24 1021.6
20260501172035 24 230 4.8 11.3 0.00 0.00 0.00 24 1021.7
20260501171032 25 252 4.8 8.0 0.00 0.00 0.00 23 1021.7
20260501170030 25 272 3.2 9.7 0.00 0.00 0.00 23 1021.7
20260501165028 25 17 4.8 12.9 0.00 0.00 0.00 22 1021.7
20260501164026 25 229 6.4 11.3 0.00 0.00 0.00 23 1021.7